Regional Weather Roundup
Issued by NWS

Home | Current Version | Previous Version | Graphics & Text | Print | Product List | Glossary On
Versions: 1 2 3 4 5 6 7 8 9 10 11 12 13 14 15 16 17 18 19 20 21 22 23 24 25 26 27 28 29 30 31 32 33 34 35 36 37 38 39 40 41 42 43 44 45 46 47 48 49 50
000
ASUS43 KOAX 191602
RWRNE

WEATHER ROUNDUP FOR NEBRASKA
NATIONAL WEATHER SERVICE OMAHA NE
1100 AM CDT TUE SEP 19 2017

NOTES: SATELLITE DATA IS BEING USED TO AUGMENT CLOUD COVER ABOVE
       12000 FEET.
       "FAIR" INDICATES FEW OR NO CLOUDS BELOW 12,000 FEET WITH NO
       SIGNIFICANT WEATHER AND/OR OBSTRUCTIONS TO VISIBILITY.


NEZ001>004-019>022-054>056-191700-
NEBRASKA PANHANDLE

CITY           SKY/WX    TMP DP  RH WIND       PRES   REMARKS
SCOTTSBLUFF    CLOUDY    57  52  83 E6        29.63F
ALLIANCE       CLOUDY    58  53  84 S6        29.63S
CHADRON        CLOUDY    66  46  48 VRB3      29.57S
GORDON         FAIR      64  56  75 SW3       29.59F
KIMBALL        CLOUDY    57  46  65 SW5       29.69F
SIDNEY         CLOUDY    60  51  72 SW5       29.66F
$$

NEZ057>060-069>072-079>082-191700-
SOUTHWEST NEBRASKA

CITY           SKY/WX    TMP DP  RH WIND       PRES   REMARKS
NORTH PLATTE   CLOUDY    75  63  66 SE10      29.62F
IMPERIAL       CLOUDY    71  53  52 S7        29.65S
LEXINGTON      CLOUDY    74  64  70 S14G23    29.67F
MCCOOK         SUNNY     78  63  59 S14       29.64F
OGALLALA       CLOUDY    70  54  58 SW6       29.64F
$$

NEZ005>010-023>029-035>040-094-191700-
NORTH CENTRAL NEBRASKA

CITY           SKY/WX    TMP DP  RH WIND       PRES   REMARKS
VALENTINE      CLOUDY    73  63  70 S21       29.58F
AINSWORTH      CLOUDY    70  65  84 S18       29.61F
BROKEN BOW     CLOUDY    72  65  78 S17       29.66F
O`NEILL        CLOUDY    69  67  94 SE15G22   29.67F
ORD            CLOUDY    72  64  76 SE10      29.66F
THEDFORD       CLOUDY    70  63  79 S12G22    29.63F
$$

NEZ041-046>049-061>064-073>077-083>087-191700-
SOUTH CENTRAL NEBRASKA

CITY           SKY/WX    TMP DP  RH WIND       PRES   REMARKS
GRAND ISLAND   SUNNY     76  67  73 S14G28    29.70F
AURORA         SUNNY     76  67  73 S16G23    29.70F
HASTINGS       SUNNY     77  64  64 S15G28    29.71F
HEBRON         SUNNY     81  66  61 S17       29.72F
HOLDREGE       CLOUDY    74  62  65 S22G29    29.69S
KEARNEY        SUNNY     76  65  68 S22       29.68F
YORK           SUNNY     77  68  73 S14G23    29.72F
$$

NEZ011>018-030>034-042>045-191700-
NORTHEAST NEBRASKA

CITY           SKY/WX    TMP DP  RH WIND       PRES   REMARKS
NORFOLK        SUNNY     73  68  84 SE16      29.72F
ALBION         SUNNY     74  68  82 SE14      29.70F
BLAIR          MOSUNNY   75  68  80 SE10      29.80F
COLUMBUS       SUNNY     76  68  76 SE14      29.74F
FREMONT        PTSUNNY   74  68  81 SE12      29.78F
TEKAMAH        MOSUNNY   74  67  78 SE12      29.78F
WAYNE          CLOUDY    71  68  91 SE16      29.75F
$$

NEZ050>053-065>068-078-088>093-191700-
SOUTHEAST NEBRASKA

CITY           SKY/WX    TMP DP  RH WIND       PRES   REMARKS
LINCOLN        SUNNY     78  67  68 SE14      29.77F
OMAHA EPPLEY   MOSUNNY   76  67  73 SE15      29.80F
BEATRICE       SUNNY     81  68  65 S10       29.76F
FALLS CITY     SUNNY     79  67  66 SE13      29.82F
NEBRASKA CITY  SUNNY     77  71  80 S14       29.82F
PLATTSMOUTH    SUNNY     75  69  80 SE15      29.81F
$$

NEZ044-045-051>053-067-191700-
OMAHA AREA

CITY           SKY/WX    TMP DP  RH WIND       PRES   REMARKS
OMAHA EPPLEY   MOSUNNY   76  67  73 SE15      29.80F
BLAIR          MOSUNNY   75  68  80 SE10      29.80F
FREMONT        PTSUNNY   74  68  81 SE12      29.78F
MILLARD        MOSUNNY   76  69  77 SE12G17   29.80F
OFFUTT AFB     SUNNY     76  67  73 SE15G22   29.80F
PLATTSMOUTH    SUNNY     75  69  80 SE15      29.81F
WAHOO          FAIR      76  69  79 SE15      29.77F
$$




USA.gov is the U.S. government's official web portal to all federal, state and local government web resources and services.